SCP
0 0 0 0 0 0 0 0 -0 0 0 0 -0 -0 -0 -0 0 0 -0 -0 0 0 0 0 -0 0 0 0 0 0 0 0 0 0 0 0 0 0 0 0 0 0 0 0 0 0 0 0 0
0 0 0 0 0 0 0 0 0 0 0 -0 -0 0 0 0 0 0 0 -0 -0 0 0 0 -0 -0 0 0 0 0 0 0 0 0 0 0 0 0 0 0 0 0 0 0 0 0 0 0 0
0 0 0 0 0 0 0 0 0 0 0 0 0 0 0 0 -0 0 -0 0 0 0 0 0 0 -0 0 0 0 0 0 0 0 0 0 0 0 0 0 0 0 0 0 0 0 0 0 0 0
0 0 0 0 0 0 0 0 0 0 0 0 0 0 0 0 0 0 0 0 0 0 0 0 0 -0 0 0 0 0 0 0 0 0 0 0 0 0 0 0 0 0 0 0 0 0 0 0 0
0 0 0 0 0 0 0 0 0 0 0 0 0 -0 0 0 0 0 0 0 0 0 0 0 0 -0 -0 0 0 0 0 0 0 0 0 0 0 0 0 0 0 0 0 0 0 0 0 0 0
0 0 0 0 0 -0 -0 0 0 0 0 0 -0 0 0 0 0 -0 0 0 0 0 0 0 0 0 0 1 0 0 0 1 0 0 0 0 0 0 0 0 0 0 0 0 0 0 0 0 0
0 0 0 0 0 0 -0 0 0 0 0 0 0 0 0 0 -0 0 0 0 0 0 0 0 1 1 1 1 1 1 1 1 0 0 0 1 0 0 0 0 0 0 0 0 0 0 0 0 0
0 0 0 0 0 0 0 0 0 0 0 0 0 0 0 -0 0 0 0 0 0 0 0 0 1 1 1 1 2 1 1 1 1 1 1 1 1 0 0 0 0 0 0 0 0 0 0 0 0
0 0 0 0 0 0 0 0 0 0 0 0 0 0 0 0 0 0 0 0 0 0 0 0 0 0 1 1 1 2 1 1 1 1 1 1 1 1 1 1 0 0 0 0 0 0 0 0 0
0 0 0 0 0 0 0 0 0 0 0 0 0 -0 0 0 0 0 0 0 0 0 0 0 0 0 0 1 1 2 1 1 1 1 1 1 1 1 1 1 1 0 0 0 0 0 0 0 0
0 0 0 0 0 0 0 0 0 0 -0 -0 -0 -0 0 0 0 0 0 0 0 0 0 0 0 0 0 0 0 1 1 1 1 1 1 1 1 1 1 1 1 1 1 1 1 1 1 0 0
0 0 0 0 0 0 0 0 0 0 0 0 -0 -0 0 0 0 0 0 0 0 0 0 0 0 0 0 0 0 0 1 1 1 1 1 1 1 1 1 1 0 1 1 1 1 1 0 0 0
0 0 0 0 0 0 0 0 0 0 0 0 0 0 0 0 0 0 0 0 0 0 0 0 0 0 0 0 0 0 0 0 0 1 1 1 1 0 0 0 0 0 0 1 1 0 0 0 0
0 0 0 0 0 0 0 0 0 0 0 0 0 0 0 0 0 0 0 0 0 0 0 0 0 0 0 0 0 0 0 0 0 0 1 1 1 0 0 0 0 0 0 0 0 0 0 0 0
0 0 0 0 0 0 0 0 0 0 0 0 0 0 0 0 0 0 0 0 0 0 0 0 0 0 0 0 0 0 0 0 0 0 1 1 0 0 0 0 0 0 0 0 0 0 0 0 0
0 0 0 0 0 0 0 0 0 0 0 0 0 0 0 0 0 0 0 0 0 0 0 0 0 0 0 0 1 0 0 0 0 0 1 1 0 0 0 0 0 0 0 0 0 0 0 0 0
0 0 0 0 0 0 0 0 0 0 0 0 0 0 0 0 0 0 0 0 0 0 0 0 0 0 0 0 1 1 1 0 0 0 1 1 0 0 0 0 0 0 0 0 0 0 0 0 0
0 0 0 0 0 0 0 0 0 0 0 0 0 0 0 0 0 0 0 0 0 0 0 0 0 0 0 0 0 0 0 0 0 0 0 0 0 0 0 0 0 0 0 0 0 0 0 0 0
0 0 0 0 0 0 0 0 0 0 0 0 0 0 0 0 0 0 0 0 0 0 0 0 0 0 0 0 0 0 1 0 0 0 0 0 0 0 0 0 0 0 0 0 0 0 0 0 0
0 0 0 0 0 0 0 0 0 0 0 0 0 0 0 0 0 0 0 0 0 0 0 0 0 0 0 1 0 0 0 0 0 0 0 0 0 0 0 0 0 0 0 0 0 0 0 0 0
0 0 0 0 0 0 0 0 0 0 0 0 0 0 0 0 0 0 0 0 0 0 0 0 0 0 0 0 0 0 0 0 0 0 0 0 0 0 0 0 0 0 0 0 0 0 0 0 0
0 0 0 0 0 0 0 -0 0 0 0 0 0 0 0 0 0 0 0 0 0 0 0 0 0 0 0 0 0 0 0 0 0 0 0 0 0 0 0 0 0 0 0 0 0 0 0 0 0
0 0 0 0 0 0 0 0 -0 -0 -0 0 0 0 0 0 0 0 0 0 0 0 -0 0 0 0 0 0 0 0 0 0 0 0 0 0 0 0 0 0 0 0 0 0 0 0 0 0 0
0 0 0 0 0 0 0 0 -0 -0 0 -0 0 0 0 0 0 0 0 0 0 0 0 0 0 0 0 0 0 0 0 0 0 0 0 0 0 0 0 0 0 0 0 0 0 0 0 0 0
0 0 0 0 0 0 0 0 0 0 0 0 0 0 0 0 0 0 0 0 0 0 0 0 0 0 0 0 0 0 0 0 0 0 0 0 0 0 0 0 0 0 0 0 0 0 0 0 0
0 0 0 0 0 0 0 0 0 -0 -0 -0 -0 0 0 0 0 0 0 0 0 0 0 0 0 0 0 0 0 0 0 0 0 0 0 0 0 0 0 0 0 0 0 0 0 0 0 0 0
0 0 0 0 0 0 0 0 -0 0 0 0 -0 0 0 0 0 0 0 0 0 0 0 0 0 0 0 0 0 0 0 0 0 0 0 0 0 0 0 0 0 0 0 0 0 0 0 0 0
0 0 0 0 0 0 0 -0 -0 0 0 -0 0 0 0 0 0 0 0 0 0 0 0 0 0 0 0 0 0 0 0 0 0 0 0 0 0 0 0 0 0 0 0 0 0 0 0 0 0
0 0 0 0 0 0 0 0 -0 0 0 0 0 0 0 0 0 0 0 0 0 0 0 0 0 -0 0 0 0 0 0 0 0 0 0 0 0 0 0 0 0 0 0 0 0 0 0 0 0
0 0 0 0 0 0 -0 0 0 0 0 0 0 0 0 0 0 0 0 0 0 0 0 0 0 0 0 0 0 0 0 0 0 0 0 0 0 0 0 0 0 0 0 0 0 0 0 0 0
Wind_Speed_500mb
15 11 14 11 5 8 7 13 6 11 5 0 6 13 24 9 16 10 37 42 37 42 46 48 41 34 30 26 26 26 24 23 20 19 17 16 14 13 11 8 6 3 2 4 5 5 6 5 6
14 15 15 4 7 6 10 10 12 13 8 21 8 14 9 14 28 8 47 50 43 40 45 47 41 36 33 31 30 30 28 25 22 20 17 14 13 11 10 8 6 4 2 3 3 3 5 6 7
18 22 5 6 8 11 10 10 10 4 14 5 8 12 9 6 23 34 46 45 43 42 45 42 36 38 36 34 33 33 32 29 25 21 18 15 11 9 7 8 6 5 2 1 2 3 6 8 9
16 14 3 4 13 12 12 7 9 20 22 3 3 12 8 17 21 40 43 40 45 38 34 36 35 38 39 39 38 38 37 34 30 26 21 19 16 12 9 6 5 3 1 2 3 3 6 9 11
22 5 4 6 11 11 8 24 21 13 12 27 17 10 7 13 33 42 38 39 32 31 29 34 37 40 45 46 45 44 42 39 37 32 29 26 23 19 14 9 4 2 2 4 5 6 7 9 14
11 3 2 14 13 9 12 23 13 11 18 10 7 12 6 18 29 36 35 22 22 20 25 33 36 48 49 54 50 47 47 45 44 40 37 34 32 27 20 16 11 6 4 7 8 9 10 10 14
9 8 9 7 6 9 10 16 10 10 8 6 2 13 12 26 29 33 28 24 19 25 29 34 43 48 56 59 58 54 53 52 51 48 44 42 39 34 29 23 17 12 9 9 9 10 10 13 15
12 8 7 10 10 14 11 10 17 12 5 13 10 5 6 16 33 35 29 30 29 31 38 45 44 54 59 63 64 63 61 60 59 55 51 49 46 43 37 30 24 18 14 14 12 10 9 11 14
14 4 10 13 16 11 9 4 14 9 9 15 3 14 28 21 33 34 38 38 38 39 41 47 53 57 59 66 66 70 69 66 65 63 60 57 58 53 46 39 31 24 19 18 17 14 12 10 12
14 10 19 11 16 8 10 10 12 9 8 4 17 10 18 18 7 39 41 42 44 47 48 54 59 59 68 69 70 75 76 76 74 74 71 68 66 60 52 46 38 30 26 23 23 20 18 11 11
19 20 26 14 31 28 20 24 20 9 13 24 24 8 22 30 32 25 34 49 49 49 57 58 58 64 72 77 78 80 83 84 83 82 78 76 72 66 62 54 47 39 32 31 29 26 24 18 14
10 33 37 16 29 11 13 34 34 36 36 56 61 66 63 54 47 56 52 45 46 42 42 45 53 65 72 82 87 86 89 90 89 89 87 84 81 72 69 60 52 45 39 36 33 31 26 23 19
29 20 31 56 42 38 30 41 31 58 70 77 81 78 77 73 67 60 52 37 51 44 39 42 56 60 59 71 84 83 84 90 94 95 92 91 89 81 71 63 56 51 44 41 37 34 31 26 23
6 24 33 33 34 21 15 34 22 26 56 62 59 75 78 82 78 70 65 64 47 53 61 60 64 55 62 76 70 73 82 83 93 96 94 97 94 88 69 66 62 55 48 43 39 34 33 30 28
23 12 8 15 19 22 30 43 60 62 61 70 72 78 80 84 77 74 70 59 63 66 69 70 72 79 65 63 71 71 75 74 78 87 92 93 91 85 69 68 63 57 51 46 40 36 36 36 34
8 9 26 27 15 13 28 58 49 39 56 67 70 69 70 77 75 66 68 74 72 75 83 76 79 79 63 59 64 69 69 68 68 74 81 84 80 69 66 63 63 57 51 43 36 36 39 39 38
9 31 19 12 17 22 24 61 22 46 49 58 58 70 71 75 79 82 80 72 75 85 75 80 76 68 58 55 65 71 62 65 71 74 75 72 59 52 53 53 53 50 46 35 30 34 38 39 39
21 13 3 10 10 28 23 60 25 37 37 53 60 70 73 77 78 78 85 95 92 73 77 79 70 71 68 58 59 66 60 64 72 72 66 55 44 42 40 42 40 45 40 28 27 30 36 38 38
11 7 3 2 4 5 32 41 35 32 45 42 60 66 72 79 94 99 91 76 65 69 63 64 60 55 60 55 58 62 60 66 72 66 50 41 36 41 40 37 34 37 31 25 24 28 33 38 40
19 5 7 10 18 9 13 25 25 21 27 46 55 61 65 78 85 85 81 77 75 65 65 63 63 55 50 54 57 61 61 67 64 45 37 32 38 38 33 24 30 28 32 29 26 29 36 41 41
8 10 5 13 18 20 18 33 30 25 31 54 59 72 76 76 80 78 71 64 65 70 69 70 67 53 47 52 55 60 58 50 45 41 35 37 38 34 20 25 21 25 29 26 29 33 37 39 34
21 9 3 6 5 14 5 19 32 31 41 29 36 64 72 75 82 85 82 80 79 76 74 75 64 50 46 51 53 55 51 42 41 34 33 38 37 25 28 27 24 18 24 29 32 36 34 30 26
12 21 17 8 9 7 13 9 28 8 26 19 28 58 73 95 90 91 87 86 80 75 69 65 45 45 45 44 41 37 31 27 25 31 40 39 34 35 29 26 21 26 28 29 32 31 25 24 22
8 10 7 5 5 12 13 16 44 20 36 29 16 48 67 57 54 51 47 44 44 47 50 51 38 41 38 30 27 23 23 28 33 39 39 31 29 29 24 25 26 27 27 28 23 20 21 20 21
7 10 3 2 5 18 27 18 43 5 14 13 16 35 35 36 46 52 52 46 37 34 36 37 36 34 30 27 25 24 25 26 29 32 29 29 27 22 23 25 23 25 26 20 16 13 10 7 15
12 16 8 11 10 8 14 24 17 25 30 37 36 47 42 45 48 48 40 33 37 34 28 31 35 34 31 32 34 33 31 30 28 25 23 20 19 18 20 22 23 22 17 17 17 17 17 14 20
9 10 17 5 6 2 10 15 18 25 38 16 17 33 48 52 45 39 35 26 20 26 33 37 37 34 38 40 40 38 34 30 31 28 25 22 20 17 19 18 15 13 14 13 15 21 24 23 22
10 8 8 2 9 9 10 11 14 15 17 9 18 22 56 68 44 18 11 19 31 38 39 38 36 40 42 42 40 38 35 29 26 27 24 20 16 14 14 16 12 11 9 10 16 22 21 22 17
2 2 3 6 9 7 5 10 12 8 10 14 18 38 56 60 26 19 28 40 43 42 42 42 43 45 45 41 40 37 33 28 24 20 19 17 15 16 16 13 10 6 5 10 15 21 20 16 14
4 6 4 8 11 14 6 13 10 11 9 13 24 52 48 22 20 33 45 49 47 47 47 48 49 47 44 40 34 29 26 21 18 16 17 20 22 19 18 13 8 2 10 17 16 17 19 26 21
Wind_Direction_500mb
200 194 165 166 84 74 252 258 237 296 250 26 187 166 195 193 161 207 160 168 172 183 187 186 187 192 192 188 188 192 186 182 177 173 168 159 152 145 124 106 109 128 167 202 220 238 260 258 261
195 173 163 188 115 137 255 248 230 224 292 328 281 155 162 224 188 188 163 173 179 184 191 190 187 196 199 199 198 198 199 199 192 188 183 177 169 160 139 117 91 88 130 175 185 200 247 270 282
183 166 190 161 174 193 221 222 223 238 299 236 296 207 188 219 218 169 166 171 179 187 195 194 192 201 205 207 207 207 207 209 207 208 201 196 192 184 169 145 102 68 43 243 246 278 271 270 287
176 156 265 153 227 252 205 242 350 337 337 271 202 275 224 181 190 171 170 176 185 183 192 199 203 209 212 213 213 215 216 216 216 217 218 215 214 208 199 186 136 78 42 249 235 276 286 284 280
182 163 181 255 259 264 233 264 287 268 252 242 208 255 269 177 157 169 177 177 174 179 195 202 211 219 220 220 218 219 221 222 222 224 223 226 227 223 218 223 210 190 323 303 290 307 297 285 287
169 158 149 230 241 265 269 264 254 263 268 268 179 172 240 190 179 173 185 180 189 202 207 212 219 224 227 226 222 224 228 229 230 229 227 228 231 228 227 230 238 244 290 300 302 309 306 293 280
172 122 225 215 225 280 251 242 213 244 302 276 86 152 182 192 191 198 193 198 207 217 229 229 227 229 230 230 229 229 233 235 233 232 233 234 234 233 231 231 237 249 276 281 287 303 310 313 300
212 131 224 228 183 262 234 259 243 203 157 49 7 16 310 229 198 201 205 213 221 226 232 237 241 236 236 235 233 232 235 238 237 237 237 237 237 235 235 234 236 246 264 265 269 276 286 317 313
195 141 223 220 170 237 229 284 224 245 276 324 187 340 330 307 206 209 214 223 228 232 240 246 249 248 246 243 240 237 236 239 241 241 239 239 239 236 235 237 237 242 257 257 259 258 272 302 323
181 189 219 190 212 227 247 268 297 287 355 256 279 282 298 357 222 238 227 238 240 240 243 247 249 250 248 249 247 244 241 239 241 241 240 240 241 239 238 238 238 240 252 253 257 256 261 275 306
196 220 227 219 224 246 272 285 276 331 313 263 290 279 285 291 295 253 271 269 261 258 258 255 260 261 257 253 251 250 247 243 243 244 242 243 243 240 238 236 238 241 250 257 256 254 262 270 278
227 226 229 249 236 247 252 282 287 278 260 280 285 289 289 279 276 282 286 277 271 260 271 271 271 275 266 258 256 253 252 249 247 247 245 244 243 241 241 239 242 245 249 254 253 255 261 263 270
231 215 221 240 248 250 259 258 262 279 278 280 281 283 281 289 290 284 291 269 287 267 284 288 284 282 273 259 256 253 254 253 251 250 248 248 245 243 244 242 244 248 250 253 252 256 261 263 266
159 225 234 239 246 244 250 269 252 258 269 269 273 276 279 280 281 287 284 283 278 290 299 304 297 291 285 262 262 257 253 253 254 253 252 250 247 246 246 248 248 248 252 254 254 257 261 265 265
256 284 280 228 237 246 246 268 253 254 259 262 265 265 270 273 277 278 280 279 291 295 304 303 296 299 295 281 263 259 259 254 255 256 256 254 250 249 249 252 248 248 252 250 251 256 259 261 267
207 162 242 236 183 241 169 258 247 254 243 250 250 255 263 270 275 276 278 284 290 297 304 297 293 296 292 279 266 265 261 247 248 254 257 258 255 252 252 250 246 246 248 240 251 260 263 266 272
248 237 214 247 216 200 191 253 251 249 256 260 268 271 273 274 275 275 279 284 292 302 296 295 297 293 293 277 267 264 254 245 248 253 257 261 261 252 243 240 238 240 236 238 259 265 269 270 272
222 231 207 204 197 189 205 246 256 268 256 259 261 266 270 272 272 278 283 288 294 290 291 292 295 294 290 268 259 256 242 244 249 253 256 261 254 239 235 237 233 225 222 242 264 274 270 264 271
42 71 56 322 263 281 222 249 253 251 258 257 264 263 266 271 276 281 282 285 285 285 294 295 298 281 279 255 251 245 240 244 249 251 254 248 225 226 229 225 220 212 219 245 260 263 263 270 276
271 264 256 266 260 214 275 277 280 264 258 259 259 261 262 272 275 277 280 277 276 280 296 297 297 280 260 245 248 240 242 243 248 253 245 218 217 218 220 216 201 216 224 242 263 272 276 277 278
203 218 209 226 293 283 301 283 272 262 236 251 255 262 263 262 271 275 275 274 276 283 288 295 293 284 252 246 244 240 240 244 240 231 215 207 209 208 205 210 208 214 224 253 271 275 280 281 275
242 178 248 325 166 258 21 289 271 271 264 249 253 259 265 269 267 269 272 275 278 279 283 290 281 268 247 242 241 239 242 242 239 227 205 203 203 197 196 198 208 224 250 265 270 281 282 274 269
244 200 226 223 253 269 258 310 281 241 266 270 252 256 257 260 264 269 272 275 276 275 275 277 261 243 239 237 239 237 239 231 216 191 189 187 189 185 182 199 216 247 260 267 276 278 273 270 258
205 180 166 163 150 253 207 194 279 251 248 255 260 253 255 263 270 275 278 280 277 273 266 260 240 226 224 221 218 212 210 195 186 182 181 180 176 181 195 209 233 248 258 272 268 265 267 266 258
161 103 145 91 175 231 181 184 236 259 306 242 278 287 289 277 280 279 281 281 278 262 257 238 217 205 191 188 178 170 180 188 188 187 185 181 181 194 214 221 241 258 264 247 249 245 245 277 273
184 163 178 177 183 220 199 226 248 234 255 276 278 277 293 298 293 285 283 272 273 254 231 201 184 173 169 162 158 158 171 174 173 177 177 181 195 204 215 232 250 251 227 232 234 230 238 248 251
198 167 212 23 282 198 212 279 288 283 286 290 290 308 310 315 311 294 274 262 232 188 168 166 162 164 159 159 158 160 166 168 167 175 182 186 190 207 233 236 214 206 222 228 239 245 255 259 244
180 183 107 331 206 247 254 258 233 318 286 355 324 302 321 325 286 268 211 172 156 155 155 160 161 160 158 159 157 158 159 164 170 173 181 192 206 214 199 184 187 196 217 240 248 251 246 250 238
153 293 201 174 185 211 304 266 220 248 70 334 304 331 323 320 251 184 162 152 154 156 156 157 157 157 155 154 152 153 155 158 165 180 191 195 178 173 164 156 164 184 239 279 274 252 240 233 225
338 257 230 205 253 252 130 278 330 112 63 8 348 335 334 336 178 164 156 153 155 155 157 158 157 156 153 152 153 156 157 163 168 169 168 161 162 158 146 136 115 344 300 292 276 252 235 221 215
Wind_Speed_850mb
15 11 14 11 5 8 7 13 6 11 5 0 6 13 24 9 16 10 37 42 37 42 46 48 41 34 30 26 26 26 24 23 20 19 17 16 14 13 11 8 6 3 2 4 5 5 6 5 6
14 15 15 4 7 6 10 10 12 13 8 21 8 14 9 14 28 8 47 50 43 40 45 47 41 36 33 31 30 30 28 25 22 20 17 14 13 11 10 8 6 4 2 3 3 3 5 6 7
18 22 5 6 8 11 10 10 10 4 14 5 8 12 9 6 23 34 46 45 43 42 45 42 36 38 36 34 33 33 32 29 25 21 18 15 11 9 7 8 6 5 2 1 2 3 6 8 9
16 14 3 4 13 12 12 7 9 20 22 3 3 12 8 17 21 40 43 40 45 38 34 36 35 38 39 39 38 38 37 34 30 26 21 19 16 12 9 6 5 3 1 2 3 3 6 9 11
22 5 4 6 11 11 8 24 21 13 12 27 17 10 7 13 33 42 38 39 32 31 29 34 37 40 45 46 45 44 42 39 37 32 29 26 23 19 14 9 4 2 2 4 5 6 7 9 14
11 3 2 14 13 9 12 23 13 11 18 10 7 12 6 18 29 36 35 22 22 20 25 33 36 48 49 54 50 47 47 45 44 40 37 34 32 27 20 16 11 6 4 7 8 9 10 10 14
9 8 9 7 6 9 10 16 10 10 8 6 2 13 12 26 29 33 28 24 19 25 29 34 43 48 56 59 58 54 53 52 51 48 44 42 39 34 29 23 17 12 9 9 9 10 10 13 15
12 8 7 10 10 14 11 10 17 12 5 13 10 5 6 16 33 35 29 30 29 31 38 45 44 54 59 63 64 63 61 60 59 55 51 49 46 43 37 30 24 18 14 14 12 10 9 11 14
14 4 10 13 16 11 9 4 14 9 9 15 3 14 28 21 33 34 38 38 38 39 41 47 53 57 59 66 66 70 69 66 65 63 60 57 58 53 46 39 31 24 19 18 17 14 12 10 12
14 10 19 11 16 8 10 10 12 9 8 4 17 10 18 18 7 39 41 42 44 47 48 54 59 59 68 69 70 75 76 76 74 74 71 68 66 60 52 46 38 30 26 23 23 20 18 11 11
19 20 26 14 31 28 20 24 20 9 13 24 24 8 22 30 32 25 34 49 49 49 57 58 58 64 72 77 78 80 83 84 83 82 78 76 72 66 62 54 47 39 32 31 29 26 24 18 14
10 33 37 16 29 11 13 34 34 36 36 56 61 66 63 54 47 56 52 45 46 42 42 45 53 65 72 82 87 86 89 90 89 89 87 84 81 72 69 60 52 45 39 36 33 31 26 23 19
29 20 31 56 42 38 30 41 31 58 70 77 81 78 77 73 67 60 52 37 51 44 39 42 56 60 59 71 84 83 84 90 94 95 92 91 89 81 71 63 56 51 44 41 37 34 31 26 23
6 24 33 33 34 21 15 34 22 26 56 62 59 75 78 82 78 70 65 64 47 53 61 60 64 55 62 76 70 73 82 83 93 96 94 97 94 88 69 66 62 55 48 43 39 34 33 30 28
23 12 8 15 19 22 30 43 60 62 61 70 72 78 80 84 77 74 70 59 63 66 69 70 72 79 65 63 71 71 75 74 78 87 92 93 91 85 69 68 63 57 51 46 40 36 36 36 34
8 9 26 27 15 13 28 58 49 39 56 67 70 69 70 77 75 66 68 74 72 75 83 76 79 79 63 59 64 69 69 68 68 74 81 84 80 69 66 63 63 57 51 43 36 36 39 39 38
9 31 19 12 17 22 24 61 22 46 49 58 58 70 71 75 79 82 80 72 75 85 75 80 76 68 58 55 65 71 62 65 71 74 75 72 59 52 53 53 53 50 46 35 30 34 38 39 39
21 13 3 10 10 28 23 60 25 37 37 53 60 70 73 77 78 78 85 95 92 73 77 79 70 71 68 58 59 66 60 64 72 72 66 55 44 42 40 42 40 45 40 28 27 30 36 38 38
11 7 3 2 4 5 32 41 35 32 45 42 60 66 72 79 94 99 91 76 65 69 63 64 60 55 60 55 58 62 60 66 72 66 50 41 36 41 40 37 34 37 31 25 24 28 33 38 40
19 5 7 10 18 9 13 25 25 21 27 46 55 61 65 78 85 85 81 77 75 65 65 63 63 55 50 54 57 61 61 67 64 45 37 32 38 38 33 24 30 28 32 29 26 29 36 41 41
8 10 5 13 18 20 18 33 30 25 31 54 59 72 76 76 80 78 71 64 65 70 69 70 67 53 47 52 55 60 58 50 45 41 35 37 38 34 20 25 21 25 29 26 29 33 37 39 34
21 9 3 6 5 14 5 19 32 31 41 29 36 64 72 75 82 85 82 80 79 76 74 75 64 50 46 51 53 55 51 42 41 34 33 38 37 25 28 27 24 18 24 29 32 36 34 30 26
12 21 17 8 9 7 13 9 28 8 26 19 28 58 73 95 90 91 87 86 80 75 69 65 45 45 45 44 41 37 31 27 25 31 40 39 34 35 29 26 21 26 28 29 32 31 25 24 22
8 10 7 5 5 12 13 16 44 20 36 29 16 48 67 57 54 51 47 44 44 47 50 51 38 41 38 30 27 23 23 28 33 39 39 31 29 29 24 25 26 27 27 28 23 20 21 20 21
7 10 3 2 5 18 27 18 43 5 14 13 16 35 35 36 46 52 52 46 37 34 36 37 36 34 30 27 25 24 25 26 29 32 29 29 27 22 23 25 23 25 26 20 16 13 10 7 15
12 16 8 11 10 8 14 24 17 25 30 37 36 47 42 45 48 48 40 33 37 34 28 31 35 34 31 32 34 33 31 30 28 25 23 20 19 18 20 22 23 22 17 17 17 17 17 14 20
9 10 17 5 6 2 10 15 18 25 38 16 17 33 48 52 45 39 35 26 20 26 33 37 37 34 38 40 40 38 34 30 31 28 25 22 20 17 19 18 15 13 14 13 15 21 24 23 22
10 8 8 2 9 9 10 11 14 15 17 9 18 22 56 68 44 18 11 19 31 38 39 38 36 40 42 42 40 38 35 29 26 27 24 20 16 14 14 16 12 11 9 10 16 22 21 22 17
2 2 3 6 9 7 5 10 12 8 10 14 18 38 56 60 26 19 28 40 43 42 42 42 43 45 45 41 40 37 33 28 24 20 19 17 15 16 16 13 10 6 5 10 15 21 20 16 14
4 6 4 8 11 14 6 13 10 11 9 13 24 52 48 22 20 33 45 49 47 47 47 48 49 47 44 40 34 29 26 21 18 16 17 20 22 19 18 13 8 2 10 17 16 17 19 26 21
Wind_Direction_850mb
200 194 165 166 84 74 252 258 237 296 250 26 187 166 195 193 161 207 160 168 172 183 187 186 187 192 192 188 188 192 186 182 177 173 168 159 152 145 124 106 109 128 167 202 220 238 260 258 261
195 173 163 188 115 137 255 248 230 224 292 328 281 155 162 224 188 188 163 173 179 184 191 190 187 196 199 199 198 198 199 199 192 188 183 177 169 160 139 117 91 88 130 175 185 200 247 270 282
183 166 190 161 174 193 221 222 223 238 299 236 296 207 188 219 218 169 166 171 179 187 195 194 192 201 205 207 207 207 207 209 207 208 201 196 192 184 169 145 102 68 43 243 246 278 271 270 287
176 156 265 153 227 252 205 242 350 337 337 271 202 275 224 181 190 171 170 176 185 183 192 199 203 209 212 213 213 215 216 216 216 217 218 215 214 208 199 186 136 78 42 249 235 276 286 284 280
182 163 181 255 259 264 233 264 287 268 252 242 208 255 269 177 157 169 177 177 174 179 195 202 211 219 220 220 218 219 221 222 222 224 223 226 227 223 218 223 210 190 323 303 290 307 297 285 287
169 158 149 230 241 265 269 264 254 263 268 268 179 172 240 190 179 173 185 180 189 202 207 212 219 224 227 226 222 224 228 229 230 229 227 228 231 228 227 230 238 244 290 300 302 309 306 293 280
172 122 225 215 225 280 251 242 213 244 302 276 86 152 182 192 191 198 193 198 207 217 229 229 227 229 230 230 229 229 233 235 233 232 233 234 234 233 231 231 237 249 276 281 287 303 310 313 300
212 131 224 228 183 262 234 259 243 203 157 49 7 16 310 229 198 201 205 213 221 226 232 237 241 236 236 235 233 232 235 238 237 237 237 237 237 235 235 234 236 246 264 265 269 276 286 317 313
195 141 223 220 170 237 229 284 224 245 276 324 187 340 330 307 206 209 214 223 228 232 240 246 249 248 246 243 240 237 236 239 241 241 239 239 239 236 235 237 237 242 257 257 259 258 272 302 323
181 189 219 190 212 227 247 268 297 287 355 256 279 282 298 357 222 238 227 238 240 240 243 247 249 250 248 249 247 244 241 239 241 241 240 240 241 239 238 238 238 240 252 253 257 256 261 275 306
196 220 227 219 224 246 272 285 276 331 313 263 290 279 285 291 295 253 271 269 261 258 258 255 260 261 257 253 251 250 247 243 243 244 242 243 243 240 238 236 238 241 250 257 256 254 262 270 278
227 226 229 249 236 247 252 282 287 278 260 280 285 289 289 279 276 282 286 277 271 260 271 271 271 275 266 258 256 253 252 249 247 247 245 244 243 241 241 239 242 245 249 254 253 255 261 263 270
231 215 221 240 248 250 259 258 262 279 278 280 281 283 281 289 290 284 291 269 287 267 284 288 284 282 273 259 256 253 254 253 251 250 248 248 245 243 244 242 244 248 250 253 252 256 261 263 266
159 225 234 239 246 244 250 269 252 258 269 269 273 276 279 280 281 287 284 283 278 290 299 304 297 291 285 262 262 257 253 253 254 253 252 250 247 246 246 248 248 248 252 254 254 257 261 265 265
256 284 280 228 237 246 246 268 253 254 259 262 265 265 270 273 277 278 280 279 291 295 304 303 296 299 295 281 263 259 259 254 255 256 256 254 250 249 249 252 248 248 252 250 251 256 259 261 267
207 162 242 236 183 241 169 258 247 254 243 250 250 255 263 270 275 276 278 284 290 297 304 297 293 296 292 279 266 265 261 247 248 254 257 258 255 252 252 250 246 246 248 240 251 260 263 266 272
248 237 214 247 216 200 191 253 251 249 256 260 268 271 273 274 275 275 279 284 292 302 296 295 297 293 293 277 267 264 254 245 248 253 257 261 261 252 243 240 238 240 236 238 259 265 269 270 272
222 231 207 204 197 189 205 246 256 268 256 259 261 266 270 272 272 278 283 288 294 290 291 292 295 294 290 268 259 256 242 244 249 253 256 261 254 239 235 237 233 225 222 242 264 274 270 264 271
42 71 56 322 263 281 222 249 253 251 258 257 264 263 266 271 276 281 282 285 285 285 294 295 298 281 279 255 251 245 240 244 249 251 254 248 225 226 229 225 220 212 219 245 260 263 263 270 276
271 264 256 266 260 214 275 277 280 264 258 259 259 261 262 272 275 277 280 277 276 280 296 297 297 280 260 245 248 240 242 243 248 253 245 218 217 218 220 216 201 216 224 242 263 272 276 277 278
203 218 209 226 293 283 301 283 272 262 236 251 255 262 263 262 271 275 275 274 276 283 288 295 293 284 252 246 244 240 240 244 240 231 215 207 209 208 205 210 208 214 224 253 271 275 280 281 275
242 178 248 325 166 258 21 289 271 271 264 249 253 259 265 269 267 269 272 275 278 279 283 290 281 268 247 242 241 239 242 242 239 227 205 203 203 197 196 198 208 224 250 265 270 281 282 274 269
244 200 226 223 253 269 258 310 281 241 266 270 252 256 257 260 264 269 272 275 276 275 275 277 261 243 239 237 239 237 239 231 216 191 189 187 189 185 182 199 216 247 260 267 276 278 273 270 258
205 180 166 163 150 253 207 194 279 251 248 255 260 253 255 263 270 275 278 280 277 273 266 260 240 226 224 221 218 212 210 195 186 182 181 180 176 181 195 209 233 248 258 272 268 265 267 266 258
161 103 145 91 175 231 181 184 236 259 306 242 278 287 289 277 280 279 281 281 278 262 257 238 217 205 191 188 178 170 180 188 188 187 185 181 181 194 214 221 241 258 264 247 249 245 245 277 273
184 163 178 177 183 220 199 226 248 234 255 276 278 277 293 298 293 285 283 272 273 254 231 201 184 173 169 162 158 158 171 174 173 177 177 181 195 204 215 232 250 251 227 232 234 230 238 248 251
198 167 212 23 282 198 212 279 288 283 286 290 290 308 310 315 311 294 274 262 232 188 168 166 162 164 159 159 158 160 166 168 167 175 182 186 190 207 233 236 214 206 222 228 239 245 255 259 244
180 183 107 331 206 247 254 258 233 318 286 355 324 302 321 325 286 268 211 172 156 155 155 160 161 160 158 159 157 158 159 164 170 173 181 192 206 214 199 184 187 196 217 240 248 251 246 250 238
153 293 201 174 185 211 304 266 220 248 70 334 304 331 323 320 251 184 162 152 154 156 156 157 157 157 155 154 152 153 155 158 165 180 191 195 178 173 164 156 164 184 239 279 274 252 240 233 225
338 257 230 205 253 252 130 278 330 112 63 8 348 335 334 336 178 164 156 153 155 155 157 158 157 156 153 152 153 156 157 163 168 169 168 161 162 158 146 136 115 344 300 292 276 252 235 221 215